Regional Weather Roundup
Issued by NWS

Home | Current Version | Previous Version | Text Only | Print | Product List | Glossary Off
Versions: 1 2 3 4 5 6 7 8 9 10 11 12 13 14 15 16 17 18 19 20 21 22 23 24 25 26 27 28 29 30 31 32 33 34 35 36 37 38 39 40 41 42 43 44 45 46 47 48 49 50

000
ASUS43 KBIS 281310
RWRND

NORTH DAKOTA REGIONAL WEATHER ROUNDUP
NATIONAL WEATHER SERVICE BISMARCK ND
800 AM CDT THU APR 28 2016

NOTE: "FAIR" INDICATES FEW OR NO CLOUDS BELOW 12,000 FEET WITH NO
SIGNIFICANT WEATHER AND/OR OBSTRUCTIONS TO VISIBILITY.


NDZ001>003-009>011-017-281400-
NORTHWEST NORTH DAKOTA

CITY           SKY/WX    TMP DP  RH WIND       PRES   REMARKS
WILLISTON      CLOUDY    37  25  61 N7        30.13R
MINOT          CLOUDY    39  23  52 N8        30.12R
MINOT AFB      CLOUDY    36  24  61 N8        30.12R
$$

NDZ018>021-031>035-040>046-281400-
SOUTHWEST NORTH DAKOTA

CITY           SKY/WX    TMP DP  RH WIND       PRES   REMARKS
BISMARCK       CLOUDY    38  36  92 E3        30.08S
DICKINSON      CLOUDY    34  29  82 N7        30.04R
GARRISON         N/A     38  26  62 NE7       30.09R
HETTINGER ARPT CLOUDY    34  31  88 NE14      30.05R
$$

NDZ004>008-012>016-024-026-027-054-281400-
NORTHEAST NORTH DAKOTA

CITY           SKY/WX    TMP DP  RH WIND       PRES   REMARKS
GRAND FORKS    CLOUDY    41  23  48 NE12      30.11R
GRND FRKS AFB  CLOUDY    38  25  59 NE6       30.11R
DEVILS LAKE    PTSUNNY   39  22  50 NE12      30.11R
$$

NDZ022-023-025-028>030-036>039-047>053-281400-
SOUTHEAST NORTH DAKOTA

CITY           SKY/WX    TMP DP  RH WIND       PRES   REMARKS
FARGO          CLOUDY    44  26  49 NE8       30.05R
JAMESTOWN      CLOUDY    40  33  76 N12       30.04R
$$




USA.gov is the U.S. government's official web portal to all federal, state and local government web resources and services.